South Padre Island, TX

10:41 AM CDT on March 27, 2017 (GMT -0500)
South Padre Island

Weather History for KSPL - January, 2014

Change the Weather History Date:

Saturday, January 11, 2014

  Actual Average (KBRO) Record (KBRO)
Temperature  
Mean Temperature 62 °F -  
Max Temperature 66 °F 69 °F 88 °F (1963)
Min Temperature 57 °F 50 °F 25 °F (1918)
Degree Days  
Heating Degree Days 4    
Growing Degree Days 12 (Base 50)    
Moisture  
Dew Point 61 °F    
Average Humidity 93    
Maximum Humidity 100    
Minimum Humidity 73    
Precipitation  
Precipitation 0.00 in - - ()
Sea Level Pressure  
Sea Level Pressure 30.04 in    
Wind  
Wind Speed 6 mph (North)    
Max Wind Speed 14 mph    
Max Gust Speed 18 mph    
Visibility 1 miles    
Events Fog , Rain    
Averages and records for this station are not official NWS values.
T = Trace of Precipitation, MM = Missing Value Source: NWS Daily Summary

Daily Weather History Graph

Daily Weather History Graph

Search for Another Location

Airport or City:

Trip Planner

Search our weather history database for the weather conditions in past years. The results will help you decide how hot, cold, wet, or windy it might be!

Date:

Astronomy

Jan. 11, 2014 Rise Set
Actual Time 7:17 AM CST 5:55 PM CST
Civil Twilight 6:52 AM CST 6:20 PM CST
Nautical Twilight 6:24 AM CST 6:49 PM CST
Astronomical Twilight 5:56 AM CST 7:17 PM CST
Moon 2:37 PM CST (1/11) 3:28 AM CST (1/11)
Length of Visible Light 11h 28m
Length of Day
10h 38m
Waxing Gibbous, 83% of the Moon is Illuminated
Jan 11
Waxing Gibbous
Jan 15
Full
Jan 23
Last Quarter
Jan 30
New
Feb 6
First Quarter

Hourly Weather History & Observations

Time (CST) Temp. Dew Point Humidity Pressure Visibility Wind Dir Wind Speed Gust Speed Precip Events Conditions
12:15 AM 64.4 °F 64.4 °F 100% 29.91 in 0.5 mi SW 4.6 mph - N/A Rain Light Rain
12:35 AM 62.6 °F 62.6 °F 100% 29.91 in 0.2 mi SW 6.9 mph - N/A Rain Light Rain
12:55 AM 64.4 °F 64.4 °F 100% 29.91 in 0.2 mi SW 5.8 mph - N/A Rain Light Rain
1:15 AM 62.6 °F 62.6 °F 100% 29.92 in 0.2 mi WSW 5.8 mph - N/A Rain Light Rain
1:35 AM 62.6 °F 62.6 °F 100% 29.92 in 0.2 mi WSW 6.9 mph - N/A Rain Light Rain
1:55 AM 64.4 °F 64.4 °F 100% 29.92 in 0.2 mi WSW 5.8 mph - N/A Rain Light Rain
2:15 AM 64.4 °F 64.4 °F 100% 29.93 in 0.2 mi West 4.6 mph - N/A Rain Light Rain
2:35 AM 64.4 °F 64.4 °F 100% 29.92 in 0.2 mi SW 9.2 mph - N/A Rain Light Rain
2:55 AM 64.4 °F 64.4 °F 100% 29.92 in 0.2 mi SW 10.4 mph - N/A Rain Light Rain
3:15 AM 64.4 °F 64.4 °F 100% 29.93 in 0.2 mi SW 8.1 mph - N/A Rain Light Rain
3:35 AM 64.4 °F 64.4 °F 100% 29.94 in 0.2 mi WSW 8.1 mph - N/A Rain Light Rain
3:55 AM 64.4 °F 64.4 °F 100% 29.94 in 0.2 mi WSW 11.5 mph - N/A Rain Light Rain
4:15 AM 64.4 °F 64.4 °F 100% 29.94 in 0.2 mi WSW 8.1 mph - N/A Rain Light Rain
4:35 AM 64.4 °F 64.4 °F 100% 29.95 in 0.2 mi SW 6.9 mph - N/A Rain Light Rain
4:55 AM 64.4 °F 64.4 °F 100% 29.94 in 0.2 mi WSW 6.9 mph - N/A Rain Light Rain
5:15 AM 64.4 °F 64.4 °F 100% 29.96 in 0.2 mi WSW 5.8 mph - N/A Rain Light Rain
5:35 AM 64.4 °F 64.4 °F 100% 29.96 in 0.2 mi WSW 4.6 mph - N/A Rain Light Rain
5:55 AM 64.4 °F 64.4 °F 100% 29.97 in 0.2 mi Calm Calm - N/A Rain Light Rain
6:15 AM 64.4 °F 64.4 °F 100% 29.98 in 0.2 mi Calm Calm - N/A Rain Light Rain
6:35 AM - - N/A% 29.99 in 0.2 mi Calm Calm - N/A Rain Light Rain
6:55 AM 64.4 °F 64.4 °F 100% 30.00 in 0.2 mi Calm Calm - N/A Rain Light Rain
7:15 AM 64.4 °F 64.4 °F 100% 30.01 in 0.2 mi Calm Calm - N/A Rain Light Rain
7:35 AM 64.4 °F 64.4 °F 100% 30.02 in 0.2 mi Calm Calm - N/A Rain Light Rain
7:55 AM 64.4 °F 64.4 °F 100% 30.04 in 0.2 mi Calm Calm - N/A Rain Light Rain
8:15 AM 64.4 °F 64.4 °F 100% 30.05 in 0.2 mi Calm Calm - N/A Rain Light Rain
8:35 AM 64.4 °F 64.4 °F 100% 30.07 in 0.2 mi Calm Calm - N/A Rain Light Rain
8:55 AM 64.4 °F 64.4 °F 100% 30.07 in 0.2 mi Calm Calm - N/A Rain Light Rain
9:15 AM 64.4 °F 64.4 °F 100% 30.08 in 0.2 mi Calm Calm - N/A Rain Light Rain
9:35 AM 64.4 °F 64.4 °F 100% 30.09 in 0.2 mi NW 3.5 mph - N/A Rain Light Rain
9:55 AM 64.4 °F 64.4 °F 100% 30.10 in 0.2 mi WNW 4.6 mph - N/A Rain Light Rain
10:15 AM 64.4 °F 64.4 °F 100% 30.10 in 0.2 mi Calm Calm - N/A Rain Light Rain
10:35 AM 64.4 °F 64.4 °F 100% 30.09 in 0.2 mi Calm Calm - N/A Fog Fog
10:55 AM 64.4 °F 64.4 °F 100% 30.09 in 0.5 mi Calm Calm - N/A Fog Fog
11:15 AM 66.2 °F 64.4 °F 94% 30.09 in 0.2 mi Calm Calm - N/A Fog Fog
11:35 AM 66.2 °F 64.4 °F 94% 30.09 in 0.2 mi NNE 8.1 mph - N/A Fog Fog
11:55 AM 66.2 °F 62.6 °F 88% 30.08 in 0.2 mi NE 4.6 mph - N/A Fog Fog
12:15 PM 66.2 °F 62.6 °F 88% 30.07 in 0.2 mi Calm Calm - N/A   Haze
12:35 PM 66.2 °F 62.6 °F 88% 30.07 in 0.2 mi NNE 4.6 mph - N/A   Haze
12:55 PM 66.2 °F 60.8 °F 83% 30.06 in 0.2 mi NE 4.6 mph - N/A   Haze
1:15 PM 66.2 °F 60.8 °F 83% 30.06 in 0.5 mi NNE 6.9 mph - N/A   Haze
1:35 PM - - N/A% 30.05 in 1.8 mi NNE 5.8 mph - N/A   Clear
1:55 PM 66.2 °F 59.0 °F 78% 30.05 in 4.0 mi NNE 8.1 mph - N/A   Haze
2:15 PM 66.2 °F 59.0 °F 78% 30.05 in 1.0 mi North 8.1 mph - N/A   Haze
2:35 PM 66.2 °F 57.2 °F 73% 30.05 in 0.5 mi North 10.4 mph - N/A   Haze
2:55 PM 66.2 °F 57.2 °F 73% 30.05 in 3.0 mi North 10.4 mph - N/A   Haze
3:15 PM 66.2 °F 57.2 °F 73% 30.06 in 1.2 mi North 12.7 mph 18.4 mph N/A   Haze
3:35 PM 66.2 °F 57.2 °F 73% 30.06 in 1.5 mi North 13.8 mph - N/A   Haze
3:55 PM 64.4 °F 57.2 °F 77% 30.06 in 1.0 mi North 9.2 mph - N/A   Haze
4:15 PM 64.4 °F 57.2 °F 77% 30.06 in 2.0 mi North 10.4 mph - N/A   Haze
4:35 PM 64.4 °F 57.2 °F 77% 30.07 in 1.5 mi North 11.5 mph - N/A   Haze
4:55 PM 62.6 °F 57.2 °F 82% 30.07 in 2.0 mi North 10.4 mph - N/A   Haze
5:15 PM 62.6 °F 55.4 °F 77% 30.08 in 1.8 mi North 10.4 mph - N/A   Haze
5:35 PM 62.6 °F 55.4 °F 77% 30.07 in 1.2 mi North 9.2 mph - N/A   Haze
5:55 PM 60.8 °F 57.2 °F 88% 30.08 in 1.0 mi North 10.4 mph - N/A   Clear
6:15 PM 60.8 °F 57.2 °F 88% 30.08 in 2.0 mi North 8.1 mph - N/A   Clear
6:35 PM 59.0 °F 57.2 °F 94% 30.09 in 3.0 mi North 8.1 mph - N/A   Clear
6:55 PM 59.0 °F 57.2 °F 94% 30.09 in 2.5 mi North 9.2 mph - N/A   Clear
7:15 PM 59.0 °F 57.2 °F 94% 30.10 in 1.5 mi NNE 9.2 mph - N/A   Clear
7:35 PM 59.0 °F 57.2 °F 94% 30.10 in 2.5 mi NNE 10.4 mph - N/A   Clear
7:55 PM 59.0 °F 57.2 °F 94% 30.11 in 2.5 mi NNE 9.2 mph - N/A   Clear
8:15 PM 59.0 °F 57.2 °F 94% 30.11 in 3.0 mi NNE 8.1 mph - N/A   Clear
8:35 PM 59.0 °F 57.2 °F 94% 30.12 in 2.5 mi NNE 9.2 mph - N/A   Clear
8:55 PM 59.0 °F 57.2 °F 94% 30.13 in 3.0 mi NNE 8.1 mph - N/A   Clear
9:15 PM 59.0 °F 57.2 °F 94% 30.13 in 1.5 mi NNE 6.9 mph - N/A   Clear
9:35 PM 57.2 °F 57.2 °F 100% 30.14 in 2.5 mi NNE 5.8 mph - N/A   Clear
9:55 PM 57.2 °F 55.4 °F 94% 30.14 in 1.5 mi NE 5.8 mph - N/A Rain Light Rain
10:15 PM 57.2 °F 57.2 °F 100% 30.14 in 2.5 mi NE 6.9 mph - N/A Rain Rain
10:35 PM 57.2 °F 57.2 °F 100% 30.13 in 2.0 mi NE 6.9 mph - N/A Rain Rain
10:55 PM 57.2 °F 57.2 °F 100% 30.14 in 0.8 mi NE 5.8 mph - N/A Rain Heavy Rain
11:15 PM 57.2 °F 57.2 °F 100% 30.14 in 2.0 mi NE 6.9 mph - N/A Rain Heavy Rain
11:35 PM 57.2 °F 57.2 °F 100% 30.13 in 2.5 mi ENE 6.9 mph - N/A Rain Heavy Rain
11:55 PM 59.0 °F 57.2 °F 94% 30.13 in 5.0 mi East 6.9 mph - N/A Rain Rain